www.pogodaiklimat.ru

Погода и климат >> Архив погоды >> Россия >> Адыгея >> Даховская


ПОГОДА в Даховской

  • Прогноз погоды в Даховской
  • Монитор погоды в Даховской

АРХИВ ПОГОДЫ в Даховской

Время (UTC), дата Ветер
(напр.,м/с)
 
Видим.   Явления Облачность Т
(С)
Тd
(С)
f
(%)
Тe
(С)
Тes
(С)
Комфортность P
(гПа)
Po
(гПа)
Тmin
(С)
Tmax
(С)
R
(мм)
R24
(мм)
S
(см)
12 12.08 С 2 50 км ясно +28.0 +7.6 28 +28 +38 жарко 1015.0 959.1
15 12.08 СВ 2 50 км ясно +25.9 +9.8 36 +27 +28 жарко 1015.3 959.1 +28.2
18 12.08 штиль 0 50 км ясно +14.8 +12.4 86 +14 +14 1018.5 960.0
21 12.08 штиль 0 н/о н/о +12.8 +12.8 100 +12 +12 1018.8 959.9
00 13.08 штиль 0 50 км ясно +11.3 +11.3 100 +11 +11 1018.7 959.5
03 13.08 штиль 0 50 км ясно +10.2 +10.2 100 +9 +10 1019.4 959.9 +10.1
06 13.08 ЮЗ 1 50 км ясно +19.2 +12.0 63 +21 +31 комфорт 1017.0 959.5
09 13.08 СВ 2 50 км ясно +28.0 +11.4 36 +29 +45 жарко 1013.7 957.9
12 13.08 СВ 2 50 км ясно +29.4 +11.0 32 +30 +40 жарко 1012.3 956.9
15 13.08 В 1 50 км ясно +27.5 +10.5 35 +28 +29 жарко 1012.1 956.3 +29.9
18 13.08 штиль 0 50 км ясно +15.6 +12.4 81 +15 +15 1015.2 957.1
21 13.08 штиль 0 50 км ясно +12.9 +12.9 100 +12 +12 1014.6 956.0
00 14.08 Ю 1 50 км ясно +11.8 +11.8 100 +11 +11 1015.1 956.2
03 14.08 штиль 0 50 км ясно +11.0 +11.0 100 +10 +11 1015.4 956.3 +10.9
06 14.08 штиль 0 50 км ясно +20.7 +13.3 63 +23 +34 комфорт 1012.0 955.0
09 14.08 СЗ 2 50 км ясно +28.8 +14.8 42 +31 +47 жарко 1009.2 953.9
12 14.08 СВ 1 50 км ясно +31.4 +11.0 29 +32 +44 жарко 1007.4 952.6
15 14.08 ЮВ 1 50 км ясно +28.8 +13.6 39 +30 +32 жарко 1007.4 952.2 +31.8
18 14.08 штиль 0 50 км ясно +18.2 +14.5 79 +18 +18 1009.7 952.5
21 14.08 В 1 50 км ясно +15.5 +15.5 100 +16 +16 1009.1 951.4
00 15.08 ЮВ 1 50 км ясно +14.2 +14.2 100 +14 +14 1009.4 951.4
03 15.08 ЮВ 1 50 км ясно +13.2 +13.2 100 +13 +13 1009.8 951.6 +13.0
06 15.08 З 1 50 км ясно +22.4 +15.6 65 +26 +36 жарко 1008.1 951.7
09 15.08 СЗ 1 50 км ясно +32.2 +14.3 34 +34 +53 опасность
солнечного
удара
1005.1 950.6
12 15.08 С 2 50 км ясно +34.0 +14.3 31 +35 +46 очень
жарко
1003.4 949.3
15 15.08 СЗ 1 50 км ясно +31.7 +15.1 37 +34 +35 душно 1003.4 949.0 +34.4
18 15.08 штиль 0 50 км ясно +19.9 +17.2 84 +22 +22 комфорт 1006.9 950.2
21 15.08 штиль 0 50 км ясно +18.0 +18.0 100 +18 +18 1008.2 951.1
00 16.08 штиль 0 50 км ясно +16.9 +16.9 100 +17 +17 1009.0 951.6
03 16.08 ЮЗ 1 50 км 10/10 1000 м
[Sc]
+17.7 +17.7 100 +19 +19 1008.9 951.7 +16.5
06 16.08 СЗ 1 50 км 10/10 1000 м
[Sc]
+22.8 +17.2 71 +28 +28 душно 1006.8 950.6
09 16.08 С 3 50 км гроза без осадков 10/10 1000 м
[Cb calv]
+27.3 +18.9 60 +32 +32 очень
душно
1005.5 950.3
12 16.08 штиль 0 50 км {гроза} 10/10 1000 м
[Cb cap]
+27.6 +20.1 64 +34 +34 очень
душно
1004.8 949.7
15 16.08 С 3 50 км 9/9 1000 м
[Sc]
+25.7 +18.6 65 +31 +31 очень
душно
1004.4 949.0 +29.8
18 16.08 штиль 0 10 км гроза, ливневой дождь 10/10 600 м
[Cb calv]
+21.2 +21.2 100 +27 +27 душно 1007.9 951.5
21 16.08 ЮЗ 1 20 км {гроза, ливн. осадки} 10/10 600 м
[Cb cap]
+19.6 +19.6 100 +24 +24 комфорт 1007.3 950.6
00 17.08 СЗ 1 20 км {гроза, ливн. осадки} 10/10 600 м
[Cb cap]
+19.3 +19.3 100 +23 +23 комфорт 1008.1 951.3
03 17.08 штиль 0 10 км слаб. ливневой дождь 10/10 600 м
[Cb cap]
+18.2 +18.2 100 +19 +19 1009.2 952.1 +18.2 8
06 17.08 В 1 4000 м гроза, ливневой дождь 10/10 600 м
[Cb calv]
+18.1 +18.1 100 +19 +19 1010.2 953.0 +18.1
09 17.08 штиль 0 20 км гроза без осадков {ливн. осадки} 10/10 300 м
[Cb calv]
+19.9 +19.9 100 +23 +23 комфорт 1009.3 952.5
12 17.08 С 1 20 км {гроза, ливн. осадки} 9/9 1000 м
[Sc]
+24.7 +18.9 70 +30 +31 очень
душно
1008.7 952.8
15 17.08 ЮЗ 1 20 км 10/10 1000 м
[Sc]
+21.5 +20.0 91 +27 +27 душно 1009.6 953.1 +24.7 29
18 17.08 штиль 0 20 км 10/10 1000 м
[Sc]
+19.6 +19.6 100 +22 +22 комфорт 1009.9 953.6
21 17.08 штиль 0 20 км 10/10 1000 м
[Sc]
+19.1 +19.1 100 +21 +21 комфорт 1010.2 953.1
00 18.08 С 1 4000 м гроза, ливневой дождь 10/10 600 м
[Cb calv]
+18.5 +18.5 100 +21 +21 комфорт 1009.5 952.4
03 18.08 ЮЗ 2 10 км гроза, ливневой дождь 10/10 300 м
[Cb calv]
+18.5 +18.5 100 +20 +20 1009.6 952.5 +18.3 17
06 18.08 штиль 0 4000 м гроза, ливневой дождь 10/10 300 м
[Cb calv]
+18.8 +18.8 100 +20 +20 1009.5 952.5
09 18.08 штиль 0 20 км {гроза, ливн. осадки} 8/8 1000 м
[Sc diur, vesp]
+22.2 +18.6 80 +27 +32 душно 1008.4 952.1
12 18.08 С 3 20 км {гроза, ливн. осадки} 10/10 1000 м
[Cb cap]
+22.3 +19.3 83 +28 +28 душно 1009.2 952.9
15 18.08 С 2 4000 м дымка 10/10 1000 м
[Sc]
+20.0 +20.0 100 +24 +24 комфорт 1010.7 953.9 +24.7 15
18 18.08 штиль 0 500 м туман ?/? +19.4 +19.4 100 +22 +22 комфорт 1012.6 955.5
21 18.08 СЗ 1 500 м туман ?/? +19.5 +19.5 100 +23 +23 комфорт 1012.7 955.6
00 19.08 С 1 500 м туман ?/? +18.8 +18.8 100 +21 +21 комфорт 1013.5 956.3
03 19.08 штиль 0 500 м туман ?/? +18.6 +18.8 100 +20 +20 1014.5 957.2 +18.5
06 19.08 С 1 20 км {туман} 10/10 1000 м
[Sc]
+20.9 +19.2 90 +27 +27 душно 1014.7 957.8
09 19.08 С 3 20 км 9/9 1000 м
[Sc]
+22.1 +19.1 83 +28 +29 душно 1014.8 958.1

 

Местоположение метеостанции Даховская (Адыгея, Россия): широта 44.67 долгота 40.75 высота над уровнем моря 264 м.

В архиве по умолчанию представлена погода в Даховской за последнюю неделю. Архивные данные за месяц целиком и за предыдущие месяцы, начиная с января 2011 года, Вы можете получить, выбрав интересующий диапазон дат из раскрывающегося списка и нажав кнопку "Ввод!".


*Определитесь, кто Вы:
робот инопланетянин человек

Внимание! Время в таблицах - всемирное. Для получения местного времени необходимо прибавить поправку, которая равна 3 ч.

Смотрите также архив погоды в соседних городах и на ближайших метеорологических станциях:

Погода в Дондуковской (Адыгея, Россия) (38 км)
Погода в Армавире (Краснодарский край, Россия) (45 км)
Погода в Майкопе (Адыгея, Россия) (53 км)
Погода в Шунтуке (Адыгея, Россия) (55 км)
Погода в Псебае (Краснодарский край, Россия) (60 км)
Погода в Отрадной (Краснодарский край, Россия) (65 км)
Погода в Белореченске (Краснодарский край, Россия) (68 км)
Погода в Кропоткине (Краснодарский край, Россия) (86 км)
Погода в Гузерипле (Адыгея, Россия) (89 км)
Погода в Невинномысске (Ставропольский край, Россия) (97 км)

Пояснения к столбцам:

Ветер - указаны скорость ветра в м/с - средняя за 10 мин, порывы в срок и между сроками (в фигурных скобках) и направление, откуда дует ветер: С - северный, СВ - северо-восточный, В - восточный, ЮВ - юго-восточный, Ю - южный, ЮЗ - юго-западный, З - западный, СЗ - северо-западный.
Видимость - горизонтальная дальность видимости в метрах или километрах. При видимости от 1 до 10 км при отсутствии осадков обычно наблюдается дымка, при ухудшении видимости до 1 км и менее - туман. В сухую погоду видимость может ухудшаться дымом, пылью или мглою.
Явления - указаны атмосферные явления, наблюдавшиеся в срок или в последний час перед сроком; фигурными скобками обозначены явления, наблюдавшиеся между сроками (за 1-3 часа до срока); квадратными скобками обозначены град или гололедные отложения с указанием их диаметра в мм.
Облачность - указаны через наклонную черту общая и нижняя облачность в баллах и высота нижней границы облаков в метрах; квадратными скобками обозначены формы облаков: Ci - перистые, Cs - перисто-слоистые, Cc - перисто-кучевые, Ac - высококучевые, As - высокослоистые, Sc - слоисто-кучевые, Ns - слоисто-дождевые, Cu - кучевые, Cb - кучево-дождевые. Подробнее классификацию облаков см. в Атласе облаков (PDF).
T - Температура воздуха - температура, измеренная на высоте 2 м над землей.
Td - Температура точки росы - температура, при понижении до которой содержащийся в воздухе водяной пар достигнет насыщения.
f - Относительная влажность воздуха - влажноcть воздуха, измеренная на высоте 2 м над землей.
Te - Эффективная температура - температура, которую ощущает одетый по сезону человек в тени. Характеристика душности погоды. При расчете учитывается влияние влажности воздуха и скорости ветра на теплоощущения человека.
Tes - Эффективная температура на солнце - температура, которую ощущает человек, с поправкой на солнечный нагрев. Характеристика знойности погоды. Зависит от высоты солнца над горизонтом, облачности и скорости ветра. Ночью, в пасмурную погоду, а также при ветре 12 м/с и более поправка равна нулю.
P - Атмосферное давление - приведенное к уровню моря атмосферное давление.
Po - Атмосферное давление - измеренное на уровне метеостанции атмосферное давление.
Tmin - Минимальная температура - минимум температуры воздуха на высоте 2 м над землей.
Tmax - Максимальная температура - максимум температуры воздуха на высоте 2 м над землей.
R - Количество осадков - Количество выпавших осадков за период времени, мм. При наведении курсора мыши на число - период времени, за который выпало указанное количество осадков.
R24 - Количество осадков - Количество выпавших осадков за 24 часа, мм.
S - Снежный покров - Высота снежного покрова, см. При наведении курсора мыши на число - состояние снежного покрова и степень покрытия местности в баллах.